INTELSAT 33E DEB, 61997

Orbit data source: Space-Track

INTELSAT 33E DEB, 61997 is space debris in GEO originally from a launch on Wed, 24 Aug 2016 UTC launched from the French Guiana (FRGUI). Debris objects in space refer to the collection of defunct objects orbiting the Earth. Examples of debris include non-operational satellites, rocket bodies, and fragments generated from explosions, collisions, or faulty payload assembly.

Not visible in the next 10 days
Identifier
61997, 2016-053P
Orbit
GEO
Country
Flag of USUS / ITSO
Related business
Manufacturer
Boeing/ES
Mission
Spacecraft
Bus & Motor
Unknown
Mass
Unknown
Launch date (UTC)
Icon of a cake. It is the launch day of the satellite!2016-08-24 (10 years ago)
Launch vehicle
Unknown
Launch site
French Guiana (FRGUI)
Object type
Payload
Rocket body
Debris
Shape & HBR
Unknown shape, 1.1 m
Radar Cross Section
RCS unknown

Expand to show TLE details & history
Last TLE update: 22 hours ago

TLE from 22 hours ago
0 INTELSAT 33E DEB
1 61997U 16053P   26235.12485529 -.00000231  00000-0  00000-0 0  9998
2 61997   1.7359  84.2609 0091720 273.7871  85.4616  1.01615503  6842
Epoch: 2026-08-23T02:59Z
TLE epoch observation values (Epoch: 2026-08-23T02:59:47.497Z)
Latitude
Longitude
68.19019°
Altitude
35,388.308 km
Speed
3.09 km/s
True Right ascension
05h 38m 15s
True Declination
0° 00' 00"
Sunlit
Object was in daylight at epoch
Visualization orbit readout
Latitude
Unknown
Longitude
Unknown
Altitude
Unknown
Speed
Unknown
Apparent Right ascension
Unknown
Apparent Declination
Unknown
Sunlit
N/A
Visualization observer readout
Local Sidereal Time
15:52:59
Azimuth
Unknown
Elevation
Unknown
Doppler factor
Unknown
Orbital elements
Apogee altitude
35,798.465 km
Perigee altitude
35,031.809 km
Semi-major axis
41,793.274 km
Eccentricity
0.00917
Inclination
1.7359°
RAAN
84.2609°
Arg. of periapsis
273.7871°
True anomaly
86.51023°
Mean anomaly
85.4616°
Eccentric anomaly
85.98583°
Mean motion
0.25403 °/min
Orbital period
1,417.16 mins
BSTAR
0
Loading maneuver chart data...
Computing Atmospheric mass density...
Loading historical data...
Loading historical data...
Loading historical data...
Loading historical data...
Loading historical data...
Loading historical data...
Loading historical data...

Documentation

Showing up to 5 results
|